Location: �terpigny
(49.8910°N, 2.9249°E)
Time: 08:35:58
(UTC+00:00)

CZ-4C R/B - Pass Details

Date: 03 June 2022
Orbit: 395 x 466 km, 97.7° (Epoch: 03 July)

Event Time Altitude Azimuth Distance (km) Brightness Sun altitude
Rises 20:31:47 0° 355° (N) 2,325 7.4 -5.8°
Reaches altitude 10° 20:34:46 10° 322° (NW) 1,453 7.3 -6.2°
Maximum altitude 20:35:59 12° 299° (WNW) 1,345 6.7 -6.3°
Drops below altitude 10° 20:37:10 10° 276° (W) 1,447 6.3 -6.4°
Sets 20:40:08 0° 243° (WSW) 2,299 6.7 -6.8°
